Regional Weather Roundup
Issued by NWS

Home | Current Version | Previous Version | Graphics & Text | Print | Product List | Glossary On
Versions: 1 2 3 4 5 6 7 8 9 10 11 12 13 14 15 16 17 18 19 20 21 22 23 24 25 26 27 28 29 30 31 32 33 34 35 36 37 38 39 40 41 42 43 44 45 46 47 48 49 50
072
ASUS44 KJAN 210510
RWRMS

MISSISSIPPI HOURLY WEATHER ROUNDUP
NATIONAL WEATHER SERVICE JACKSON MS
1100 PM CST THU NOV 20 2014

NOTE: "FAIR: INDICATES FEW OR NO CLOUDS BELOW 12,000 FEET WITH NO
SIGNIFICANT WEATHER AND/OR OBSTRUCTIONS TO VISIBILITY.

MSZ001>002-007>008-010>013-018>021-025>028-034>036-210600-
NORTHWEST MISSISSIPPI

CITY           SKY/WX    TMP DP  RH WIND       PRES   REMARKS
CLARKSDALE     CLOUDY    46  41  81 NE5       30.24R
CLEVELAND      CLOUDY    49  49  97 N3        30.22R FOG
GREENWOOD      CLOUDY    53  48  83 CALM      30.22R
GREENVILLE     CLOUDY    51  47  86 SE6       30.20R
GRENADA        CLOUDY    45  43  93 CALM      30.24R
OLIVE BRANCH   MOCLDY    43  30  61 E6        30.25R
OXFORD         MOCLDY    43  32  65 E3        30.25S
TUNICA         PTCLDY    43  36  75 CALM      30.25S
$$

MSZ003>006-009-014>017-022>024-029>033-037>039-210600-
NORTHEAST MISSISSIPPI

CITY           SKY/WX    TMP DP  RH WIND       PRES   REMARKS
COLUMBUS AFB   MOCLDY    45  42  89 CALM      30.26R
CORINTH        FAIR      37  32  81 CALM      30.26R
GOLDN TRIANGLE MOCLDY    46  43  87 CALM      30.24S
STARKVILLE       N/A    N/A N/A N/A CALM      30.24
TUPELO         CLEAR     41  31  67 CALM      30.25S
$$

MSZ040-058-210600-
CENTRAL MISSISSIPPI

CITY           SKY/WX    TMP DP  RH WIND       PRES   REMARKS
JACKSON INTL   PTCLDY    46  44  93 SE8       30.22S
JACKSON HAWKNS PTCLDY    45  43  93 SE3       30.22S FOG
MERIDIAN KEY   CLEAR     43  41  93 CALM      30.25R
MERIDIAN NAS   PTCLDY    45  43  93 CALM      30.25R FOG
RAYMOND        FAIR      45  39  81 MISG      30.23R HAZE
VICKSBURG      CLEAR     46  44  93 SE5       30.20S
$$

MSZ059>079-210600-
SOUTH MISSISSIPPI

CITY           SKY/WX    TMP DP  RH WIND       PRES   REMARKS
BROOKHAVEN     FAIR      52  45  76 S3        30.23R
HATTIESBURG    CLEAR     51  44  77 S8        30.24F
MCCOMB         CLEAR     51  44  77 S8        30.22S
NATCHEZ        CLEAR     55  45  67 S8        30.21R
PINE BELT      CLEAR     48  39  71 S5        30.24S
$$

MSZ080>082-210600-
COASTAL MISSISSIPPI

CITY           SKY/WX    TMP DP  RH WIND       PRES   REMARKS
BILOXI         CLEAR     48  48 100 CALM      30.25S
PASCAGOULA     CLEAR     38  38 100 N3        30.26S FOG
GULFPORT       CLEAR     45  42  89 CALM      30.25S
$$



USA.gov is the U.S. government's official web portal to all federal, state and local government web resources and services.